Weather Roundup
Issued by NWS Chicago, IL

Home | Current Version | Previous Version | Text Only | Print | Product List | Glossary On
Versions: 1 2 3 4 5 6 7 8 9 10 11 12 13 14 15 16 17 18 19 20 21 22 23 24 25 26 27 28 29 30 31 32 33 34 35 36 37 38 39 40 41 42 43 44 45 46 47 48 49 50
000
NZUS59 KLOT 200510
HRRLOT

CHICAGO AREA WEATHER ROUNDUP
NATIONAL WEATHER SERVICE CHICAGO/ROMEOVILLE IL
1200 AM CDT WED AUG 20 2014

NOTE: "FAIR" INDICATES FEW OR NO CLOUDS BELOW 12,000 FEET WITH NO
SIGNIFICANT WEATHER AND/OR OBSTRUCTIONS TO VISIBILITY.

* THESE STATIONS ARE NOT UNDER NWS QUALITY CONTROL. THEY ALSO MAY NOT
  REPORT WEATHER SUCH AS PRECIPITATION OR FOG.

ILZ005-006-012>014-019>023-200600-
NORTHEAST ILLINOIS

CITY           SKY/WX    TMP DP  RH WIND       PRES   REMARKS
OHARE          PTCLDY    72  62  71 W6        29.78R
MIDWAY         CLEAR     75  65  70 W5        29.78R
AURORA         CLEAR     66  62  87 W3        29.80R
LANSING*       PTCLDY    70  66  89 SW3       29.80R
JOLIET*        CLEAR     65  64  94 CALM      29.81R
WAUKEGAN       CLEAR     67  64  90 CALM      29.77R
DUPAGE AIRPORT CLEAR     68  62  81 W3        29.79R
WHEELING       CLEAR     71  65  81 NW3       29.79R
KANKAKEE*      CLEAR     67  66  94 CALM      29.82R
MORRIS*        CLEAR     67  67  97 W3        29.80R
LEWIS AIRPORT* CLEAR     68  67  94 W5        29.80R
NORTHERLY IS     N/A     75  63  66 W2          N/A
$$

WIZ051-052-058>065-066-070>072-200600-
SOUTHEAST WISCONSIN

CITY           SKY/WX    TMP DP  RH WIND       PRES   REMARKS
MILWAUKEE      CLEAR     68  65  90 CALM      29.77R
KENOSHA*       CLEAR     64  62  93 CALM      29.78R
RACINE*        CLEAR     68  66  93 W6        29.79R
BURLINGTON     PTCLDY    62  61  97 CALM      29.78S
WAUKESHA       MOCLDY    64  61  88 W5        29.79S
WEST BEND      CLEAR     64  59  82 CALM      29.77S
$$

INZ001>003-010>013-019-020-200600-
NORTHWEST INDIANA

CITY           SKY/WX    TMP DP  RH WIND       PRES   REMARKS
GARY*          CLEAR     73  68  86 SW3       29.79R
MICHIGAN CITY* NOT AVBL
RENSSELAER*    NOT AVBL
VALPARAISO     PTCLDY    68  65  90 SW5       29.80R
$$

LMZ740>746-200600-
SOUTHERN LAKE MICHIGAN

STATION/POSITION TIME  SKY/WX   TEMP WIND        PRES    VSBY
                                AIR  DIR/SP/G
                 (UTC)          (F)  (DEG/KT/KT) (MB)    (MI)
HARRISON CRIB    0500            75  280/ 10/ 10   N/A
BURNHAM HARBOR   0500            75  260/  4/  6   N/A
CALUMET HARBOR   0500            75  250/  2/  4 1007.5R
BURNS HARBOR     0500            73  190/  7/  8   N/A
MICHIGAN CITY    0500            72  180/  8/ 10   N/A
$$

ABBREVIATIONS USED IN REMARKS
   TC - TEMPERATURE IN CELSIUS
  WCI - WIND CHILL INDEX
   HX - HEAT INDEX
  VSB - VISIBILITY
$$



USA.gov is the U.S. government's official web portal to all federal, state and local government web resources and services.